Time,TemperatureF,DewpointF,PressureIn,WindDirection,WindDirectionDegrees,WindSpeedMPH,WindSpeedGustMPH,Humidity,HourlyPrecipIn,Conditions,Clouds,dailyrainin,SolarRadiationWatts/m^2,SoftwareType,DateUTC
2013-07-01 00:02:00,75.0,56.0,-100.00,East,93,7.0,11.0,52,0.00,,,0.00,0.000000,,2013-07-01 06:02:00,
2013-07-01 00:12:00,75.0,56.0,-100.00,East,93,7.0,11.0,52,0.00,,,0.00,0.000000,,2013-07-01 06:12:00,
2013-07-01 00:24:00,75.0,56.0,-100.00,East,93,7.0,11.0,52,0.00,,,0.00,0.000000,,2013-07-01 06:24:00,
2013-07-01 00:30:00,70.0,55.0,-100.00,NNE,21,2.0,8.0,60,0.00,,,0.00,0.000000,,2013-07-01 06:30:00,
2013-07-01 00:53:00,70.0,55.0,-100.00,NNE,21,2.0,8.0,60,0.00,,,0.00,0.000000,,2013-07-01 06:53:00,
2013-07-01 01:01:00,70.0,55.0,-100.00,NNE,21,2.0,8.0,60,0.00,,,0.00,0.000000,,2013-07-01 07:01:00,
2013-07-01 01:11:00,70.0,55.0,-100.00,NNE,21,2.0,8.0,60,0.00,,,0.00,0.000000,,2013-07-01 07:11:00,
2013-07-01 01:22:00,70.0,55.0,-100.00,NNE,21,2.0,8.0,60,0.00,,,0.00,0.000000,,2013-07-01 07:22:00,
2013-07-01 01:30:00,68.0,55.0,-100.00,NW,315,2.0,9.0,64,0.00,,,0.00,0.000000,,2013-07-01 07:30:00,
2013-07-01 02:01:00,68.0,55.0,-100.00,NW,315,2.0,9.0,64,0.00,,,0.00,0.000000,,2013-07-01 08:01:00,
2013-07-01 02:11:00,68.0,55.0,-100.00,NW,315,2.0,9.0,64,0.00,,,0.00,0.000000,,2013-07-01 08:11:00,
2013-07-01 02:22:00,68.0,55.0,-100.00,NW,315,2.0,9.0,64,0.00,,,0.00,0.000000,,2013-07-01 08:22:00,
2013-07-01 02:30:00,66.0,57.0,-100.00,WSW,252,6.0,7.0,74,0.00,,,0.00,0.000000,,2013-07-01 08:30:00,
2013-07-01 02:52:00,66.0,57.0,-100.00,WSW,252,6.0,7.0,74,0.00,,,0.00,0.000000,,2013-07-01 08:52:00,
2013-07-01 03:02:00,66.0,57.0,-100.00,WSW,252,6.0,7.0,74,0.00,,,0.00,0.000000,,2013-07-01 09:02:00,
2013-07-01 03:11:00,66.0,57.0,-100.00,WSW,252,6.0,7.0,74,0.00,,,0.00,0.000000,,2013-07-01 09:11:00,
2013-07-01 03:22:00,66.0,57.0,-100.00,WSW,252,6.0,7.0,74,0.00,,,0.00,0.000000,,2013-07-01 09:22:00,
2013-07-01 03:30:00,63.0,57.0,-100.00,West,260,4.0,7.0,80,0.00,,,0.00,0.000000,,2013-07-01 09:30:00,
2013-07-01 03:53:00,63.0,57.0,-100.00,West,260,4.0,7.0,80,0.00,,,0.00,0.000000,,2013-07-01 09:53:00,
2013-07-01 04:03:00,63.0,57.0,-100.00,West,260,4.0,7.0,80,0.00,,,0.00,0.000000,,2013-07-01 10:03:00,
2013-07-01 04:11:00,63.0,57.0,-100.00,West,260,4.0,7.0,80,0.00,,,0.00,0.000000,,2013-07-01 10:11:00,
2013-07-01 04:22:00,63.0,57.0,-100.00,West,260,4.0,7.0,80,0.00,,,0.00,0.000000,,2013-07-01 10:22:00,
2013-07-01 04:30:00,62.0,56.0,-100.00,West,278,2.0,6.0,82,0.00,,,0.00,0.000000,,2013-07-01 10:30:00,
2013-07-01 04:52:00,62.0,56.0,-100.00,West,278,2.0,6.0,82,0.00,,,0.00,0.000000,,2013-07-01 10:52:00,
2013-07-01 05:02:00,62.0,56.0,-100.00,West,278,2.0,6.0,82,0.00,,,0.00,0.000000,,2013-07-01 11:02:00,
2013-07-01 05:11:00,62.0,56.0,-100.00,West,278,2.0,6.0,82,0.00,,,0.00,0.000000,,2013-07-01 11:11:00,
2013-07-01 05:22:00,62.0,56.0,-100.00,West,278,2.0,6.0,82,0.00,,,0.00,0.000000,,2013-07-01 11:22:00,
2013-07-01 05:30:00,61.0,57.0,-100.00,SW,236,5.0,7.0,87,0.00,,,-99.99,0.000000,,2013-07-01 11:30:00,
2013-07-01 05:52:00,61.0,57.0,-100.00,SW,236,5.0,7.0,87,0.00,,,-99.99,0.000000,,2013-07-01 11:52:00,
2013-07-01 06:01:00,61.0,57.0,-100.00,SW,236,5.0,7.0,87,0.00,,,-99.99,0.000000,,2013-07-01 12:01:00,
2013-07-01 06:11:00,61.0,57.0,-100.00,SW,236,5.0,7.0,87,0.00,,,-99.99,0.000000,,2013-07-01 12:11:00,
2013-07-01 06:21:00,61.0,57.0,-100.00,SW,236,5.0,7.0,87,0.00,,,-99.99,0.000000,,2013-07-01 12:21:00,
2013-07-01 06:30:00,62.0,58.0,-100.00,WSW,240,2.0,6.0,88,0.00,,,0.00,19.000000,,2013-07-01 12:30:00,
2013-07-01 06:53:00,62.0,58.0,-100.00,WSW,240,2.0,6.0,88,0.00,,,0.00,19.000000,,2013-07-01 12:53:00,
2013-07-01 07:01:00,62.0,58.0,-100.00,WSW,240,2.0,6.0,88,0.00,,,0.00,19.000000,,2013-07-01 13:01:00,
2013-07-01 07:12:00,62.0,58.0,-100.00,WSW,240,2.0,6.0,88,0.00,,,0.00,19.000000,,2013-07-01 13:12:00,
2013-07-01 07:23:00,62.0,58.0,-100.00,WSW,240,2.0,6.0,88,0.00,,,0.00,19.000000,,2013-07-01 13:23:00,
2013-07-01 07:30:00,69.0,63.0,-100.00,NNE,32,1.0,3.0,80,0.00,,,-99.99,142.000000,,2013-07-01 13:30:00,
2013-07-01 08:01:00,69.0,63.0,-100.00,NNE,32,1.0,3.0,80,0.00,,,-99.99,142.000000,,2013-07-01 14:01:00,
2013-07-01 08:11:00,69.0,63.0,-100.00,NNE,32,1.0,3.0,80,0.00,,,-99.99,142.000000,,2013-07-01 14:11:00,
2013-07-01 08:22:00,69.0,63.0,-100.00,NNE,32,1.0,3.0,80,0.00,,,-99.99,142.000000,,2013-07-01 14:22:00,
2013-07-01 08:30:00,74.0,64.0,-100.00,NNE,17,1.0,5.0,71,0.00,,,0.00,341.000000,,2013-07-01 14:30:00,
2013-07-01 09:02:00,74.0,64.0,-100.00,NNE,17,1.0,5.0,71,0.00,,,0.00,341.000000,,2013-07-01 15:02:00,
2013-07-01 09:11:00,74.0,64.0,-100.00,NNE,17,1.0,5.0,71,0.00,,,0.00,341.000000,,2013-07-01 15:11:00,
2013-07-01 09:23:00,74.0,64.0,-100.00,NNE,17,1.0,5.0,71,0.00,,,0.00,341.000000,,2013-07-01 15:23:00,
2013-07-01 09:30:00,78.0,63.0,-100.00,East,94,4.0,6.0,60,0.00,,,0.00,491.000000,,2013-07-01 15:30:00,
2013-07-01 09:53:00,78.0,63.0,-100.00,East,94,4.0,6.0,60,0.00,,,0.00,491.000000,,2013-07-01 15:53:00,
2013-07-01 10:01:00,78.0,63.0,-100.00,East,94,4.0,6.0,60,0.00,,,0.00,491.000000,,2013-07-01 16:01:00,
2013-07-01 10:11:00,78.0,63.0,-100.00,East,94,4.0,6.0,60,0.00,,,0.00,491.000000,,2013-07-01 16:11:00,
2013-07-01 10:22:00,78.0,63.0,-100.00,East,94,4.0,6.0,60,0.00,,,0.00,491.000000,,2013-07-01 16:22:00,
2013-07-01 10:30:00,79.0,62.0,-100.00,ESE,102,9.0,12.0,57,0.00,,,0.00,710.000000,,2013-07-01 16:30:00,
2013-07-01 10:53:00,79.0,62.0,-100.00,ESE,102,9.0,12.0,57,0.00,,,0.00,710.000000,,2013-07-01 16:53:00,
2013-07-01 11:02:00,79.0,62.0,-100.00,ESE,102,9.0,12.0,57,0.00,,,0.00,710.000000,,2013-07-01 17:02:00,
2013-07-01 11:12:00,79.0,62.0,-100.00,ESE,102,9.0,12.0,57,0.00,,,0.00,710.000000,,2013-07-01 17:12:00,
2013-07-01 11:23:00,79.0,62.0,-100.00,ESE,102,9.0,12.0,57,0.00,,,0.00,710.000000,,2013-07-01 17:23:00,
2013-07-01 11:30:00,81.0,64.0,-100.00,ESE,102,11.0,17.0,57,0.00,,,0.00,818.000000,,2013-07-01 17:30:00,
2013-07-01 11:53:00,81.0,64.0,-100.00,ESE,102,11.0,17.0,57,0.00,,,0.00,818.000000,,2013-07-01 17:53:00,
2013-07-01 12:02:00,81.0,64.0,-100.00,ESE,102,11.0,17.0,57,0.00,,,0.00,818.000000,,2013-07-01 18:02:00,
2013-07-01 12:11:00,81.0,64.0,-100.00,ESE,102,11.0,17.0,57,0.00,,,0.00,818.000000,,2013-07-01 18:11:00,
2013-07-01 12:22:00,81.0,64.0,-100.00,ESE,102,11.0,17.0,57,0.00,,,0.00,818.000000,,2013-07-01 18:22:00,
2013-07-01 12:30:00,84.0,64.0,-100.00,East,98,11.0,16.0,52,0.00,,,0.00,893.000000,,2013-07-01 18:30:00,
2013-07-01 13:01:00,84.0,64.0,-100.00,East,98,11.0,16.0,52,0.00,,,0.00,893.000000,,2013-07-01 19:01:00,
2013-07-01 13:11:00,84.0,64.0,-100.00,East,98,11.0,16.0,52,0.00,,,0.00,893.000000,,2013-07-01 19:11:00,
2013-07-01 13:21:00,84.0,64.0,-100.00,East,98,11.0,16.0,52,0.00,,,0.00,893.000000,,2013-07-01 19:21:00,
2013-07-01 13:30:00,87.0,64.0,-100.00,ENE,75,10.0,17.0,46,0.00,,,0.00,1089.000000,,2013-07-01 19:30:00,
2013-07-01 13:53:00,87.0,64.0,-100.00,ENE,75,10.0,17.0,46,0.00,,,0.00,1089.000000,,2013-07-01 19:53:00,
2013-07-01 14:01:00,87.0,64.0,-100.00,ENE,75,10.0,17.0,46,0.00,,,0.00,1089.000000,,2013-07-01 20:01:00,
2013-07-01 14:11:00,87.0,64.0,-100.00,ENE,75,10.0,17.0,46,0.00,,,0.00,1089.000000,,2013-07-01 20:11:00,
2013-07-01 14:21:00,87.0,64.0,-100.00,ENE,75,10.0,17.0,46,0.00,,,0.00,1089.000000,,2013-07-01 20:21:00,
2013-07-01 14:30:00,89.0,64.0,-100.00,ENE,57,10.0,17.0,43,0.00,,,0.00,1109.000000,,2013-07-01 20:30:00,
2013-07-01 15:01:00,89.0,64.0,-100.00,ENE,57,10.0,17.0,43,0.00,,,0.00,1109.000000,,2013-07-01 21:01:00,
2013-07-01 15:11:00,89.0,64.0,-100.00,ENE,57,10.0,17.0,43,0.00,,,0.00,1109.000000,,2013-07-01 21:11:00,
2013-07-01 15:23:00,89.0,64.0,-100.00,ENE,57,10.0,17.0,43,0.00,,,0.00,1109.000000,,2013-07-01 21:23:00,
2013-07-01 15:30:00,90.0,62.0,-100.00,East,81,10.0,18.0,39,0.00,,,0.00,1058.000000,,2013-07-01 21:30:00,
2013-07-01 16:01:00,90.0,62.0,-100.00,East,81,10.0,18.0,39,0.00,,,0.00,1058.000000,,2013-07-01 22:01:00,
2013-07-01 16:11:00,90.0,62.0,-100.00,East,81,10.0,18.0,39,0.00,,,0.00,1058.000000,,2013-07-01 22:11:00,
2013-07-01 16:23:00,90.0,62.0,-100.00,East,81,10.0,18.0,39,0.00,,,0.00,1058.000000,,2013-07-01 22:23:00,
2013-07-01 16:30:00,91.0,61.0,-100.00,ENE,60,11.0,17.0,37,0.00,,,0.00,848.000000,,2013-07-01 22:30:00,
2013-07-01 16:53:00,91.0,61.0,-100.00,ENE,60,11.0,17.0,37,0.00,,,0.00,848.000000,,2013-07-01 22:53:00,
2013-07-01 17:01:00,91.0,61.0,-100.00,ENE,60,11.0,17.0,37,0.00,,,0.00,848.000000,,2013-07-01 23:01:00,
2013-07-01 17:11:00,91.0,61.0,-100.00,ENE,60,11.0,17.0,37,0.00,,,0.00,848.000000,,2013-07-01 23:11:00,
2013-07-01 17:22:00,91.0,61.0,-100.00,ENE,60,11.0,17.0,37,0.00,,,0.00,848.000000,,2013-07-01 23:22:00,
2013-07-01 17:30:00,91.0,59.0,-100.00,NE,55,10.0,19.0,34,0.00,,,0.00,858.000000,,2013-07-01 23:30:00,
2013-07-01 18:01:00,91.0,59.0,-100.00,NE,55,10.0,19.0,34,0.00,,,0.00,858.000000,,2013-07-02 00:01:00,
2013-07-01 18:11:00,91.0,59.0,-100.00,NE,55,10.0,19.0,34,0.00,,,0.00,858.000000,,2013-07-02 00:11:00,
2013-07-01 18:22:00,91.0,59.0,-100.00,NE,55,10.0,19.0,34,0.00,,,0.00,858.000000,,2013-07-02 00:22:00,
2013-07-01 18:30:00,89.0,55.0,-100.00,ENE,63,11.0,19.0,32,0.00,,,0.00,624.000000,,2013-07-02 00:30:00,
2013-07-01 18:53:00,89.0,55.0,-100.00,ENE,63,11.0,19.0,32,0.00,,,0.00,624.000000,,2013-07-02 00:53:00,
2013-07-01 19:01:00,89.0,55.0,-100.00,ENE,63,11.0,19.0,32,0.00,,,0.00,624.000000,,2013-07-02 01:01:00,
2013-07-01 19:11:00,89.0,55.0,-100.00,ENE,63,11.0,19.0,32,0.00,,,0.00,624.000000,,2013-07-02 01:11:00,
2013-07-01 19:22:00,89.0,55.0,-100.00,ENE,63,11.0,19.0,32,0.00,,,0.00,624.000000,,2013-07-02 01:22:00,
2013-07-01 19:30:00,88.0,55.0,-100.00,ENE,69,10.0,17.0,33,0.00,,,0.00,383.000000,,2013-07-02 01:30:00,
2013-07-01 19:53:00,88.0,55.0,-100.00,ENE,69,10.0,17.0,33,0.00,,,0.00,383.000000,,2013-07-02 01:53:00,
2013-07-01 20:01:00,88.0,55.0,-100.00,ENE,69,10.0,17.0,33,0.00,,,0.00,383.000000,,2013-07-02 02:01:00,
2013-07-01 20:11:00,88.0,55.0,-100.00,ENE,69,10.0,17.0,33,0.00,,,0.00,383.000000,,2013-07-02 02:11:00,
2013-07-01 20:21:00,88.0,55.0,-100.00,ENE,69,10.0,17.0,33,0.00,,,0.00,383.000000,,2013-07-02 02:21:00,
2013-07-01 20:30:00,85.0,53.0,-100.00,ENE,63,10.0,15.0,34,0.00,,,0.00,201.000000,,2013-07-02 02:30:00,
2013-07-01 20:53:00,85.0,53.0,-100.00,ENE,63,10.0,15.0,34,0.00,,,0.00,201.000000,,2013-07-02 02:53:00,
2013-07-01 21:01:00,85.0,53.0,-100.00,ENE,63,10.0,15.0,34,0.00,,,0.00,201.000000,,2013-07-02 03:01:00,
2013-07-01 21:12:00,85.0,53.0,-100.00,ENE,63,10.0,15.0,34,0.00,,,0.00,201.000000,,2013-07-02 03:12:00,
2013-07-01 21:24:00,85.0,53.0,-100.00,ENE,63,10.0,15.0,34,0.00,,,0.00,201.000000,,2013-07-02 03:24:00,
2013-07-01 21:30:00,82.0,53.0,-100.00,ENE,57,9.0,14.0,37,0.00,,,0.00,22.000000,,2013-07-02 03:30:00,
2013-07-01 22:02:00,82.0,53.0,-100.00,ENE,57,9.0,14.0,37,0.00,,,0.00,22.000000,,2013-07-02 04:02:00,
2013-07-01 22:11:00,82.0,53.0,-100.00,ENE,57,9.0,14.0,37,0.00,,,0.00,22.000000,,2013-07-02 04:11:00,
2013-07-01 22:21:00,82.0,53.0,-100.00,ENE,57,9.0,14.0,37,0.00,,,0.00,22.000000,,2013-07-02 04:21:00,
2013-07-01 22:30:00,76.0,51.0,-100.00,East,89,5.0,14.0,42,0.00,,,-99.99,1.000000,,2013-07-02 04:30:00,
2013-07-01 22:53:00,76.0,51.0,-100.00,East,89,5.0,14.0,42,0.00,,,-99.99,1.000000,,2013-07-02 04:53:00,
2013-07-01 23:01:00,76.0,51.0,-100.00,East,89,5.0,14.0,42,0.00,,,-99.99,1.000000,,2013-07-02 05:01:00,
2013-07-01 23:11:00,76.0,51.0,-100.00,East,89,5.0,14.0,42,0.00,,,-99.99,1.000000,,2013-07-02 05:11:00,
2013-07-01 23:22:00,76.0,51.0,-100.00,East,89,5.0,14.0,42,0.00,,,-99.99,1.000000,,2013-07-02 05:22:00,
2013-07-01 23:30:00,75.0,57.0,-100.00,ENE,77,7.0,10.0,53,0.00,,,0.00,0.000000,,2013-07-02 05:30:00,
2013-07-01 23:53:00,75.0,57.0,-100.00,ENE,77,7.0,10.0,53,0.00,,,0.00,0.000000,,2013-07-02 05:53:00,